Weather History for Pensacola NAS, FL

Change the Weather History Date:

Wednesday, January 9, 2013

  Actual Average Record
Temperature  
Mean Temperature 64 °F -  
Max Temperature 66 °F 59 °F - (-1)
Min Temperature 61 °F 40 °F - (-1)
Degree Days  
Heating Degree Days 2    
Growing Degree Days 14 (Base 50)    
Moisture  
Dew Point 62 °F    
Average Humidity 96    
Maximum Humidity 100    
Minimum Humidity 82    
Precipitation  
Precipitation 0.00 in - - ()
Sea Level Pressure  
Sea Level Pressure 30.23 in    
Wind  
Wind Speed 10 mph (East)    
Max Wind Speed 16 mph    
Max Gust Speed -    
Visibility 4 miles    
Events Fog , Rain    
Averages and records for this station are not official NWS values.
T = Trace of Precipitation, MM = Missing Value Source: NWS Daily Summary

Daily Weather History Graph

Daily Weather History Graph

Search for Another Location

Airport:

Trip Planner

Search our weather history database for the weather conditions in past years. The results will help you decide how hot, cold, wet, or windy it might be!

Date:

Astronomy

Jan. 09, 2013 Rise Set
Actual Time 6:47 AM CST 5:06 PM CST
Civil Twilight 6:20 AM CST 5:32 PM CST
Nautical Twilight 5:51 AM CST 6:02 PM CST
Astronomical Twilight 5:22 AM CST 6:31 PM CST
Moon 4:25 AM CST (1/9) 3:07 PM CST (1/9)
Length of Visible Light 11h 11m
Length of Day
10h 19m
Waning Crescent, 6% of the Moon is Illuminated
Jan 9
Waning Crescent
Jan 11
New
Jan 18
First Quarter
Jan 26
Full
Feb 3
Last Quarter

Hourly Weather History & Observations

Time (CST) Temp. Dew Point Humidity Pressure Visibility Wind Dir Wind Speed Gust Speed Precip Events Conditions
12:27 AM 62.6 °F 57.2 °F 82% 30.18 in 10.0 mi East 10.4 mph - N/A   Overcast
12:56 AM 62.1 °F 57.0 °F 84% 30.18 in 10.0 mi East 9.2 mph - N/A   Overcast
1:56 AM 62.1 °F 57.9 °F 86% 30.18 in 10.0 mi East 11.5 mph - N/A   Overcast
2:19 AM 62.6 °F 57.2 °F 82% 30.19 in 10.0 mi East 8.1 mph - N/A   Overcast
2:47 AM 62.6 °F 59.0 °F 88% 30.18 in 10.0 mi ENE 9.2 mph - N/A   Overcast
2:56 AM 63.0 °F 59.0 °F 87% 30.19 in 10.0 mi ENE 9.2 mph - N/A   Overcast
3:56 AM 61.0 °F 60.1 °F 97% 30.20 in 10.0 mi ENE 4.6 mph - 0.00 in   Overcast
4:56 AM 62.1 °F 61.0 °F 96% 30.21 in 10.0 mi East 5.8 mph - 0.00 in Rain Light Rain
5:56 AM 63.0 °F 61.0 °F 93% 30.21 in 10.0 mi ENE 6.9 mph - 0.00 in   Overcast
5:58 AM 62.6 °F 60.8 °F 94% 30.21 in 10.0 mi ENE 6.9 mph - N/A   Overcast
6:56 AM 62.1 °F 60.1 °F 93% 30.22 in 10.0 mi ENE 10.4 mph - N/A   Overcast
7:02 AM 62.6 °F 60.8 °F 94% 30.21 in 10.0 mi ENE 10.4 mph - N/A   Overcast
7:56 AM 62.1 °F 61.0 °F 96% 30.24 in 4.0 mi East 12.7 mph - N/A   Overcast
7:59 AM 62.6 °F 60.8 °F 94% 30.23 in 2.5 mi East 13.8 mph - N/A   Overcast
8:08 AM 62.6 °F 60.8 °F 94% 30.24 in 1.5 mi East 12.7 mph - N/A   Overcast
8:22 AM 62.6 °F 62.6 °F 100% 30.24 in 1.0 mi East 10.4 mph - N/A   Overcast
8:56 AM 62.1 °F 62.1 °F 100% 30.26 in 0.8 mi East 10.4 mph - N/A   Overcast
9:32 AM 62.6 °F 62.6 °F 100% 30.26 in 1.8 mi East 13.8 mph - N/A   Overcast
9:56 AM 63.0 °F 63.0 °F 100% 30.27 in 1.2 mi East 12.7 mph - N/A   Overcast
10:56 AM 64.9 °F 63.0 °F 93% 30.24 in 1.0 mi East 12.7 mph - N/A   Overcast
11:56 AM 66.0 °F 64.0 °F 93% 30.22 in 1.2 mi East 16.1 mph - N/A   Overcast
12:49 PM 64.4 °F 64.4 °F 100% 30.21 in 0.8 mi East 12.7 mph - N/A   Overcast
12:56 PM 64.9 °F 64.0 °F 97% 30.21 in 0.8 mi East 11.5 mph - N/A   Overcast
1:21 PM 64.4 °F 64.4 °F 100% 30.20 in 0.5 mi East 11.5 mph - N/A Fog Fog
1:56 PM 66.0 °F 64.9 °F 96% 30.20 in 0.5 mi East 12.7 mph - N/A Fog Fog
2:56 PM 66.0 °F 64.9 °F 96% 30.19 in 0.8 mi East 12.7 mph - N/A   Overcast
3:56 PM 64.9 °F 64.9 °F 100% 30.19 in 0.5 mi East 12.7 mph - N/A Fog Fog
4:56 PM 64.9 °F 64.9 °F 100% 30.21 in 0.5 mi East 11.5 mph - N/A Fog Fog
5:56 PM 64.9 °F 64.9 °F 100% 30.22 in 0.5 mi East 11.5 mph - N/A Fog Fog
6:56 PM 64.9 °F 64.9 °F 100% 30.24 in 0.5 mi East 10.4 mph - N/A Fog Fog
7:56 PM 64.9 °F 64.9 °F 100% 30.25 in 0.5 mi East 12.7 mph - N/A Fog Fog
8:56 PM 64.9 °F 64.9 °F 100% 30.26 in 0.5 mi East 12.7 mph - N/A Fog Fog
9:03 PM 64.4 °F 64.4 °F 100% 30.25 in 2.5 mi East 10.4 mph - N/A   Overcast
9:26 PM 64.4 °F 64.4 °F 100% 30.25 in 3.0 mi East 10.4 mph - N/A   Overcast
9:33 PM 64.4 °F 64.4 °F 100% 30.25 in 2.5 mi East 9.2 mph - N/A   Overcast
9:56 PM 64.9 °F 64.9 °F 100% 30.26 in 1.5 mi East 11.5 mph - N/A   Overcast
10:39 PM 64.4 °F 64.4 °F 100% 30.26 in 0.8 mi East 10.4 mph - N/A   Mist
10:56 PM 64.9 °F 64.9 °F 100% 30.27 in 0.8 mi East 8.1 mph - N/A   Mist
11:27 PM 64.4 °F 64.4 °F 100% 30.26 in 1.0 mi East 9.2 mph - N/A   Mist
11:56 PM 64.0 °F 64.0 °F 100% 30.26 in 1.8 mi ENE 6.9 mph - N/A   Overcast